| time (UTC) | temp C | wind direction | speed KPH | gust KPH | rain 1hr cm | rain 24hr cm | rain mn cm | humidity % | barometer mb |
| 20260504050741 | 13 | 299 | 0.0 | 4.8 | 0.00 | 0.00 | 0.00 | 40 | 1014.7 |
| 20260504050240 | 13 | 299 | 1.6 | 4.8 | 0.00 | 0.00 | 0.00 | 41 | 1014.7 |
| 20260504045740 | 13 | 299 | 0.0 | 0.0 | 0.00 | 0.00 | 0.00 | 41 | 1014.7 |
| 20260504045240 | 13 | 299 | 0.0 | 1.6 | 0.00 | 0.00 | 0.00 | 42 | 1014.6 |
| 20260504044740 | 13 | 299 | 0.0 | 1.6 | 0.00 | 0.00 | 0.00 | 42 | 1014.7 |
| 20260504044240 | 13 | 299 | 0.0 | 0.0 | 0.00 | 0.00 | 0.00 | 42 | 1014.7 |
| 20260504043239 | 13 | 299 | 0.0 | 0.0 | 0.00 | 0.00 | 0.00 | 43 | 1014.6 |
| 20260504042739 | 13 | 299 | 0.0 | 0.0 | 0.00 | 0.00 | 0.00 | 43 | 1014.6 |
| 20260504042241 | 13 | 299 | 0.0 | 0.0 | 0.00 | 0.00 | 0.00 | 44 | 1014.4 |
| 20260504041239 | 14 | 299 | 0.0 | 3.2 | 0.00 | 0.00 | 0.00 | 44 | 1014.0 |
| 20260504040739 | 14 | 299 | 0.0 | 3.2 | 0.00 | 0.00 | 0.00 | 45 | 1013.9 |
| 20260504040239 | 14 | 299 | 0.0 | 0.0 | 0.00 | 0.00 | 0.00 | 45 | 1013.9 |
| 20260504035739 | 14 | 299 | 0.0 | 0.0 | 0.00 | 0.00 | 0.00 | 45 | 1013.9 |
| 20260504035239 | 14 | 299 | 0.0 | 0.0 | 0.00 | 0.00 | 0.00 | 45 | 1013.8 |
| 20260504034739 | 14 | 299 | 0.0 | 0.0 | 0.00 | 0.00 | 0.00 | 46 | 1013.7 |
| 20260504034239 | 14 | 299 | 0.0 | 3.2 | 0.00 | 0.00 | 0.00 | 46 | 1013.5 |
| 20260504033238 | 14 | 299 | 0.0 | 14.5 | 0.00 | 0.00 | 0.00 | 46 | 1013.4 |
| 20260504032739 | 15 | 299 | 1.6 | 14.5 | 0.00 | 0.00 | 0.00 | 46 | 1013.4 |
| 20260504031239 | 15 | 307 | 1.6 | 8.0 | 0.00 | 0.00 | 0.00 | 47 | 1013.3 |
| 20260504030738 | 15 | 309 | 3.2 | 9.7 | 0.00 | 0.00 | 0.00 | 47 | 1013.2 |
| 20260504030238 | 15 | 291 | 6.4 | 9.7 | 0.00 | 0.00 | 0.00 | 47 | 1013.2 |
| 20260504025738 | 15 | 300 | 0.0 | 11.3 | 0.00 | 0.00 | 0.00 | 46 | 1013.2 |
| 20260504025238 | 15 | 300 | 4.8 | 11.3 | 0.00 | 0.00 | 0.00 | 46 | 1013.0 |
| 20260504024739 | 15 | 302 | 3.2 | 11.3 | 0.00 | 0.00 | 0.00 | 46 | 1013.0 |
| 20260504024238 | 15 | 302 | 0.0 | 8.0 | 0.00 | 0.00 | 0.00 | 46 | 1013.1 |
| 20260504023738 | 15 | 302 | 0.0 | 11.3 | 0.00 | 0.00 | 0.00 | 45 | 1012.9 |
| 20260504023238 | 15 | 302 | 0.0 | 12.9 | 0.00 | 0.00 | 0.00 | 45 | 1012.9 |
| 20260504022737 | 16 | 306 | 0.0 | 12.9 | 0.00 | 0.00 | 0.00 | 45 | 1012.8 |
| 20260504022237 | 16 | 295 | 0.0 | 16.1 | 0.00 | 0.00 | 0.00 | 45 | 1012.9 |
| 20260504021738 | 16 | 277 | 4.8 | 16.1 | 0.00 | 0.00 | 0.00 | 45 | 1012.9 |
| 20260504021238 | 16 | 286 | 1.6 | 14.5 | 0.00 | 0.00 | 0.00 | 46 | 1012.7 |
| 20260504020738 | 16 | 302 | 4.8 | 16.1 | 0.00 | 0.00 | 0.00 | 46 | 1012.6 |
| 20260504020237 | 16 | 302 | 3.2 | 16.1 | 0.00 | 0.00 | 0.00 | 45 | 1012.6 |
| 20260504015738 | 16 | 277 | 1.6 | 9.7 | 0.00 | 0.00 | 0.00 | 45 | 1012.6 |
| 20260504015238 | 16 | 296 | 4.8 | 11.3 | 0.00 | 0.00 | 0.00 | 45 | 1012.6 |
| 20260504014737 | 16 | 296 | 0.0 | 11.3 | 0.00 | 0.00 | 0.00 | 45 | 1012.7 |
| 20260504014237 | 16 | 288 | 0.0 | 9.7 | 0.00 | 0.00 | 0.00 | 45 | 1012.7 |
| 20260504013737 | 16 | 299 | 8.0 | 9.7 | 0.00 | 0.00 | 0.00 | 45 | 1012.4 |
| 20260504013237 | 16 | 302 | 0.0 | 9.7 | 0.00 | 0.00 | 0.00 | 45 | 1012.3 |
| 20260504012737 | 16 | 234 | 0.0 | 11.3 | 0.00 | 0.00 | 0.00 | 45 | 1012.3 |
| 20260504012237 | 16 | 304 | 0.0 | 14.5 | 0.00 | 0.00 | 0.00 | 45 | 1012.3 |
| 20260504011737 | 16 | 306 | 4.8 | 17.7 | 0.00 | 0.00 | 0.00 | 45 | 1012.3 |
| 20260504011237 | 16 | 304 | 0.0 | 17.7 | 0.00 | 0.00 | 0.00 | 45 | 1012.3 |
| 20260504010737 | 16 | 304 | 1.6 | 9.7 | 0.00 | 0.00 | 0.00 | 45 | 1012.2 |
| 20260504010236 | 16 | 306 | 1.6 | 9.7 | 0.00 | 0.00 | 0.00 | 45 | 1012.3 |
| 20260504005737 | 16 | 298 | 1.6 | 16.1 | 0.00 | 0.00 | 0.00 | 45 | 1012.3 |
| 20260504004736 | 17 | 226 | 0.0 | 16.1 | 0.00 | 0.00 | 0.00 | 44 | 1012.4 |
| 20260504004236 | 17 | 241 | 14.5 | 16.1 | 0.00 | 0.00 | 0.00 | 44 | 1012.4 |
| 20260504003736 | 17 | 309 | 4.8 | 16.1 | 0.00 | 0.00 | 0.00 | 43 | 1012.3 |
| 20260504003236 | 17 | 275 | 3.2 | 9.7 | 0.00 | 0.00 | 0.00 | 43 | 1012.1 |
| 20260504002736 | 17 | 290 | 1.6 | 9.7 | 0.00 | 0.00 | 0.00 | 43 | 1012.1 |
| 20260504002236 | 17 | 303 | 3.2 | 14.5 | 0.00 | 0.00 | 0.00 | 42 | 1012.1 |
| 20260504001736 | 17 | 281 | 0.0 | 14.5 | 0.00 | 0.00 | 0.00 | 43 | 1012.1 |
| 20260504000235 | 18 | 275 | 4.8 | 14.5 | 0.00 | 0.00 | 0.00 | 42 | 1012.1 |
| 20260503234735 | 18 | 280 | 0.0 | 6.4 | 0.00 | 0.00 | 0.00 | 42 | 1011.8 |
| 20260503233736 | 18 | 277 | 0.0 | 8.0 | 0.00 | 0.00 | 0.00 | 41 | 1011.7 |
| 20260503233235 | 19 | 273 | 0.0 | 16.1 | 0.00 | 0.00 | 0.00 | 41 | 1011.6 |
| 20260503232735 | 19 | 261 | 3.2 | 16.1 | 0.00 | 0.00 | 0.00 | 41 | 1011.6 |
| 20260503232235 | 19 | 276 | 6.4 | 9.7 | 0.00 | 0.00 | 0.00 | 41 | 1011.6 |
| 20260503231735 | 19 | 158 | 0.0 | 8.0 | 0.00 | 0.00 | 0.00 | 40 | 1011.6 |
| 20260503231235 | 20 | 275 | 4.8 | 8.0 | 0.00 | 0.00 | 0.00 | 40 | 1011.8 |
| 20260503225735 | 19 | 184 | 0.0 | 11.3 | 0.00 | 0.00 | 0.00 | 40 | 1011.6 |
| 20260503225234 | 19 | 29 | 0.0 | 4.8 | 0.00 | 0.00 | 0.00 | 40 | 1011.7 |
| 20260503224734 | 19 | 124 | 0.0 | 9.7 | 0.00 | 0.00 | 0.00 | 40 | 1011.7 |
| 20260503224234 | 19 | 123 | 0.0 | 9.7 | 0.00 | 0.00 | 0.00 | 40 | 1011.9 |
| 20260503223735 | 19 | 132 | 0.0 | 4.8 | 0.00 | 0.00 | 0.00 | 39 | 1011.8 |
| 20260503223234 | 19 | 132 | 0.0 | 4.8 | 0.00 | 0.00 | 0.00 | 40 | 1011.8 |
| 20260503222736 | 19 | 132 | 0.0 | 6.4 | 0.00 | 0.00 | 0.00 | 40 | 1011.9 |
| 20260503221734 | 18 | 130 | 0.0 | 6.4 | 0.00 | 0.00 | 0.00 | 40 | 1012.2 |
| 20260503221234 | 18 | 131 | 0.0 | 6.4 | 0.00 | 0.00 | 0.00 | 40 | 1012.2 |
| 20260503220734 | 18 | 131 | 0.0 | 6.4 | 0.00 | 0.00 | 0.00 | 40 | 1012.3 |
| 20260503215234 | 18 | 183 | 0.0 | 4.8 | 0.00 | 0.00 | 0.00 | 40 | 1012.4 |
| 20260503214734 | 18 | 183 | 0.0 | 4.8 | 0.00 | 0.00 | 0.00 | 40 | 1012.4 |
| 20260503214234 | 18 | 183 | 0.0 | 4.8 | 0.00 | 0.00 | 0.00 | 40 | 1012.4 |
| 20260503213733 | 18 | 183 | 0.0 | 4.8 | 0.00 | 0.00 | 0.00 | 40 | 1012.3 |
| 20260503213233 | 18 | 180 | 3.2 | 11.3 | 0.00 | 0.00 | 0.00 | 40 | 1012.3 |
| 20260503212734 | 18 | 185 | 0.0 | 11.3 | 0.00 | 0.00 | 0.00 | 40 | 1012.4 |
| 20260503212233 | 18 | 129 | 1.6 | 6.4 | 0.00 | 0.00 | 0.00 | 40 | 1012.4 |
| 20260503211733 | 18 | 129 | 1.6 | 11.3 | 0.00 | 0.00 | 0.00 | 40 | 1012.4 |
| 20260503210734 | 18 | 215 | 0.0 | 9.7 | 0.00 | 0.00 | 0.00 | 39 | 1012.4 |
| 20260503205733 | 18 | 111 | 0.0 | 8.0 | 0.00 | 0.00 | 0.00 | 40 | 1012.7 |
| 20260503205233 | 18 | 108 | 0.0 | 8.0 | 0.00 | 0.00 | 0.00 | 39 | 1012.8 |
| 20260503204733 | 18 | 205 | 0.0 | 8.0 | 0.00 | 0.00 | 0.00 | 39 | 1012.8 |
| 20260503204233 | 19 | 196 | 6.4 | 11.3 | 0.00 | 0.00 | 0.00 | 38 | 1012.8 |
| 20260503203733 | 19 | 230 | 0.0 | 11.3 | 0.00 | 0.00 | 0.00 | 38 | 1012.9 |
| 20260503203233 | 19 | 170 | 11.3 | 11.3 | 0.00 | 0.00 | 0.00 | 37 | 1012.9 |
| 20260503202732 | 19 | 219 | 0.0 | 6.4 | 0.00 | 0.00 | 0.00 | 36 | 1012.9 |
| 20260503201733 | 18 | 219 | 0.0 | 6.4 | 0.00 | 0.00 | 0.00 | 36 | 1013.0 |
| 20260503201232 | 18 | 274 | 0.0 | 8.0 | 0.00 | 0.00 | 0.00 | 36 | 1013.0 |
| 20260503200733 | 18 | 165 | 0.0 | 9.7 | 0.00 | 0.00 | 0.00 | 37 | 1013.1 |
| 20260503200232 | 17 | 167 | 3.2 | 9.7 | 0.00 | 0.00 | 0.00 | 37 | 1013.1 |
| 20260503195732 | 17 | 330 | 0.0 | 4.8 | 0.00 | 0.00 | 0.00 | 37 | 1013.1 |
| 20260503195232 | 17 | 330 | 1.6 | 4.8 | 0.00 | 0.00 | 0.00 | 37 | 1013.2 |
| 20260503194733 | 17 | 330 | 1.6 | 3.2 | 0.00 | 0.00 | 0.00 | 36 | 1013.2 |
| 20260503194232 | 17 | 330 | 0.0 | 6.4 | 0.00 | 0.00 | 0.00 | 36 | 1013.3 |
| 20260503193731 | 17 | 330 | 0.0 | 6.4 | 0.00 | 0.00 | 0.00 | 35 | 1013.3 |
| 20260503193232 | 18 | 332 | 0.0 | 9.7 | 0.00 | 0.00 | 0.00 | 35 | 1013.3 |
| 20260503192731 | 18 | 331 | 1.6 | 11.3 | 0.00 | 0.00 | 0.00 | 34 | 1013.3 |
| 20260503192231 | 17 | 326 | 8.0 | 11.3 | 0.00 | 0.00 | 0.00 | 34 | 1013.4 |
| 20260503191733 | 17 | 342 | 6.4 | 9.7 | 0.00 | 0.00 | 0.00 | 33 | 1013.5 |
| 20260503190231 | 16 | 313 | 4.8 | 8.0 | 0.00 | 0.00 | 0.00 | 34 | 1013.7 |
| 20260503185731 | 16 | 313 | 0.0 | 11.3 | 0.00 | 0.00 | 0.00 | 33 | 1013.7 |
| 20260503185231 | 16 | 311 | 3.2 | 11.3 | 0.00 | 0.00 | 0.00 | 33 | 1013.7 |
| 20260503184731 | 16 | 313 | 3.2 | 8.0 | 0.00 | 0.00 | 0.00 | 33 | 1013.7 |
| 20260503184233 | 16 | 314 | 1.6 | 11.3 | 0.00 | 0.00 | 0.00 | 33 | 1013.7 |
| 20260503183731 | 16 | 313 | 3.2 | 11.3 | 0.00 | 0.00 | 0.00 | 32 | 1013.7 |
| 20260503183231 | 16 | 315 | 0.0 | 11.3 | 0.00 | 0.00 | 0.00 | 31 | 1013.7 |
| 20260503182731 | 16 | 284 | 0.0 | 11.3 | 0.00 | 0.00 | 0.00 | 31 | 1013.7 |
| 20260503182230 | 15 | 282 | 4.8 | 16.1 | 0.00 | 0.00 | 0.00 | 31 | 1013.7 |
| 20260503181730 | 15 | 307 | 4.8 | 16.1 | 0.00 | 0.00 | 0.00 | 30 | 1013.7 |
| 20260503180230 | 14 | 282 | 0.0 | 9.7 | 0.00 | 0.00 | 0.00 | 29 | 1013.6 |
| 20260503175731 | 14 | 282 | 0.0 | 9.7 | 0.00 | 0.00 | 0.00 | 29 | 1013.6 |
| 20260503174730 | 14 | 257 | 0.0 | 3.2 | 0.00 | 0.00 | 0.00 | 28 | 1013.6 |
| 20260503174230 | 14 | 259 | 0.0 | 8.0 | 0.00 | 0.00 | 0.00 | 28 | 1013.6 |
| 20260503173730 | 14 | 257 | 0.0 | 8.0 | 0.00 | 0.00 | 0.00 | 28 | 1013.6 |
| 20260503173230 | 14 | 247 | 0.0 | 4.8 | 0.00 | 0.00 | 0.00 | 27 | 1013.6 |
| 20260503172229 | 14 | 246 | 0.0 | 0.0 | 0.00 | 0.00 | 0.00 | 26 | 1013.6 |
| 20260503171729 | 14 | 246 | 0.0 | 0.0 | 0.00 | 0.00 | 0.00 | 26 | 1013.6 |
| 20260503171229 | 14 | 246 | 0.0 | 4.8 | 0.00 | 0.00 | 0.00 | 25 | 1013.6 |
| 20260503170729 | 14 | 246 | 0.0 | 4.8 | 0.00 | 0.00 | 0.00 | 25 | 1013.4 |
| 20260503170230 | 14 | 327 | 3.2 | 4.8 | 0.00 | 0.00 | 0.00 | 25 | 1013.4 |
| 20260503150227 | 13 | 327 | 0.0 | 3.2 | 0.00 | 0.00 | 0.00 | 14 | 1012.6 |
| 20260503140227 | 13 | 327 | 0.0 | 0.0 | 0.00 | 0.00 | 0.00 | 15 | 1012.1 |
| 20260503131226 | 13 | 327 | 0.0 | 0.0 | 0.00 | 0.00 | 0.00 | 16 | 1011.5 |
| 20260503130726 | 13 | 327 | 0.0 | 0.0 | 0.00 | 0.00 | 0.00 | 16 | 1011.5 |
| 20260503130226 | 13 | 327 | 0.0 | 0.0 | 0.00 | 0.00 | 0.00 | 16 | 1011.4 |
| 20260503110724 | 13 | 327 | 0.0 | 0.0 | 0.00 | 0.00 | 0.00 | 19 | 1011.5 |
| 20260503110224 | 13 | 327 | 0.0 | 0.0 | 0.00 | 0.00 | 0.00 | 19 | 1011.6 |
| 20260503090222 | 13 | 327 | 0.0 | 0.0 | 0.00 | 0.00 | 0.00 | 23 | 1011.9 |
| 20260503081222 | 13 | 327 | 0.0 | 0.0 | 0.00 | 0.00 | 0.00 | 24 | 1012.2 |
| 20260503080221 | 13 | 327 | 0.0 | 0.0 | 0.00 | 0.00 | 0.00 | 25 | 1012.3 |
| 20260503072721 | 13 | 327 | 0.0 | 0.0 | 0.00 | 0.00 | 0.00 | 24 | 1012.2 |
| 20260503071721 | 13 | 327 | 0.0 | 0.0 | 0.00 | 0.00 | 0.00 | 24 | 1012.1 |
| 20260503071221 | 13 | 327 | 0.0 | 0.0 | 0.00 | 0.00 | 0.00 | 23 | 1012.1 |
| 20260503070721 | 13 | 327 | 0.0 | 0.0 | 0.00 | 0.00 | 0.00 | 23 | 1012.0 |
| 20260503070251 | 13 | 327 | 0.0 | 0.0 | 0.00 | 0.00 | 0.00 | 22 | 1012.1 |
| 20260503054749 | 12 | 327 | 0.0 | 0.0 | 0.00 | 0.00 | 0.00 | 22 | 1011.5 |
| 20260503053750 | 11 | 327 | 0.0 | 0.0 | 0.00 | 0.00 | 0.00 | 23 | 1011.4 |
| 20260503053250 | 11 | 327 | 0.0 | 0.0 | 0.00 | 0.00 | 0.00 | 24 | 1011.2 |